Find Starlink 37496

NORAD ID: 69297 Int'l Des: 2026-119 Owner: SPXS Country: US Constellation: starlink operational
LEOCIRCULARRETROGRADE

現在のビュー

3D地球を読み込み中...

About Starlink 37496

Starlink 37496 (NORAD 69297) is a starlink constellation satellite (v2 mini) launched May 29, 2026 by SPXS of US. It operates in LEO, CIRCULAR, RETROGRADE orbit with a mass of 575.00 kg.

次回通過

Passes for default location (London). Set your location on the main map for personalized predictions.

高度履歴

Loading altitude history...

軌道要素

1 69297U 26119B 26224.05107094 .00006457 00000-0 20221-3 0 9996
2 69297 97.2837 249.4417 0001574 95.9257 264.2165 15.33437793 12628
Epoch: Aug 12, 2026 • Age: 8 hours

現在のステータス

高度 489.4 km
遠地点 / 近地点 N/A
速度 7.62 km/s
衛星直下点 -59.20°S, 169.31°E
打ち上げ日 May 29, 2026
運用期間 0.2 years
タイプ internet

技術仕様

分類 Payload
質量 575.00 kg
乾燥質量 530.00 kg
総質量 575.00 kg
長さ 0.30 m
直径 4.10 m
スパン 29.00 m
形状 Box + pan
製造者 SPXS
バスタイプ Starlink V2MO
フェーズステータス In Orbit
所有者/国 SPXS/US

Most Searched